Voltar ao catálogo

STARLINK-11600

AtivoComunicaçõesVLEO
NORAD 63114·PAYLOAD·🇺🇸 United States

Lançado Feb 27, 2025 de Cape Canaveral Space Force Station

Loading…

Próximas Passagens (próximas 24 horas)

TLE

AtualizadoSource: CelesTrak SupGP

Época: Sep 15, 2026, 03:36 UTC

1 63114C 25039L   26258.15048611  .00041918  00000+0  32555-3 0  2586
2 63114  43.0005 174.6747 0001461 271.4126 121.3490 15.70819701    10

Acompanhe STARLINK-11600 em tempo real com AllMySat

Download on the App Store